Glendive, MT

10:13 AM MDT on March 24, 2017 (GMT -0600)
Dawson Community

Weather History for KGDV - May, 2012

Change the Weather History Date:

Tuesday, May 22, 2012

  Actual Average Record
Temperature  
Mean Temperature 64 °F -  
Max Temperature 75 °F 66 °F 87 °F (2006)
Min Temperature 53 °F 42 °F 39 °F (2004)
Degree Days  
Heating Degree Days 1    
Growing Degree Days 14 (Base 50)    
Moisture  
Dew Point 47 °F    
Average Humidity 53    
Maximum Humidity 88    
Minimum Humidity 33    
Precipitation  
Precipitation 0.01 in - - ()
Sea Level Pressure  
Sea Level Pressure 29.57 in    
Wind  
Wind Speed 11 mph (NW)    
Max Wind Speed 26 mph    
Max Gust Speed 34 mph    
Visibility 10 miles    
Events Thunderstorm    
Averages and records for this station are not official NWS values.
T = Trace of Precipitation, MM = Missing Value Source: NWS Daily Summary

Daily Weather History Graph

Daily Weather History Graph

Search for Another Location

Airport or City:

Trip Planner

Search our weather history database for the weather conditions in past years. The results will help you decide how hot, cold, wet, or windy it might be!

Date:

Astronomy

May. 22, 2012 Rise Set
Actual Time 5:15 AM MDT 8:37 PM MDT
Civil Twilight 4:37 AM MDT 9:15 PM MDT
Nautical Twilight 3:48 AM MDT 10:04 PM MDT
Astronomical Twilight 2:45 AM MDT 11:08 PM MDT
Moon 6:26 AM MDT (5/22) 10:18 PM MDT (5/22)
Length of Visible Light 16h 37m
Length of Day
15h 22m
Waxing Crescent, 3% of the Moon is Illuminated
May 22
Waxing Crescent
May 28
First Quarter
Jun 4
Full
Jun 11
Last Quarter
Jun 19
New

Hourly Weather History & Observations

Time (MDT) Temp. Dew Point Humidity Pressure Visibility Wind Dir Wind Speed Gust Speed Precip Events Conditions
12:35 AM 64.4 °F 41.0 °F 42% 29.76 in 10.0 mi NE 8.1 mph - N/A   Clear
12:55 AM 64.4 °F 41.0 °F 42% 29.76 in 10.0 mi NE 8.1 mph - N/A   Clear
1:15 AM 64.4 °F 41.0 °F 42% 29.75 in 10.0 mi NNE 8.1 mph - N/A   Clear
1:35 AM 64.4 °F 42.8 °F 45% 29.74 in 10.0 mi NE 6.9 mph - N/A   Clear
1:55 AM 64.4 °F 42.8 °F 45% 29.75 in 10.0 mi Calm Calm - N/A   Clear
2:15 AM 62.6 °F 42.8 °F 48% 29.75 in 10.0 mi NNE 8.1 mph - N/A   Clear
2:35 AM 64.4 °F 42.8 °F 45% 29.73 in 10.0 mi ENE 8.1 mph - N/A   Clear
2:55 AM 64.4 °F 42.8 °F 45% 29.73 in 10.0 mi ENE 6.9 mph - N/A   Mostly Cloudy
3:15 AM 62.6 °F 44.6 °F 52% 29.71 in 10.0 mi ENE 9.2 mph - N/A   Overcast
3:35 AM 62.6 °F 44.6 °F 52% 29.71 in 10.0 mi North 4.6 mph - N/A   Overcast
3:55 AM 62.6 °F 44.6 °F 52% 29.69 in 10.0 mi NE 8.1 mph - N/A   Mostly Cloudy
4:35 AM 62.6 °F 44.6 °F 52% 29.66 in 10.0 mi East 6.9 mph - N/A   Partly Cloudy
4:55 AM 60.8 °F 46.4 °F 59% 29.64 in 10.0 mi East 8.1 mph - N/A   Clear
5:15 AM 62.6 °F 46.4 °F 55% 29.63 in 10.0 mi East 9.2 mph - N/A   Clear
5:35 AM 62.6 °F 46.4 °F 55% 29.61 in 10.0 mi ENE 8.1 mph - N/A   Clear
5:55 AM 62.6 °F 46.4 °F 55% 29.60 in 10.0 mi ENE 11.5 mph - N/A   Partly Cloudy
6:15 AM 66.2 °F 46.4 °F 49% 29.58 in 10.0 mi East 11.5 mph - N/A   Clear
6:35 AM 66.2 °F 46.4 °F 49% 29.56 in 10.0 mi ENE 13.8 mph - N/A   Clear
6:55 AM 64.4 °F 46.4 °F 52% 29.56 in 10.0 mi ENE 9.2 mph - N/A   Clear
7:35 AM 66.2 °F 46.4 °F 49% 29.55 in 10.0 mi East 9.2 mph - N/A   Clear
7:55 AM 66.2 °F 46.4 °F 49% 29.54 in 10.0 mi ENE 5.8 mph - N/A   Clear
8:15 AM 66.2 °F 48.2 °F 52% 29.54 in 10.0 mi NNE 3.5 mph - N/A   Clear
8:35 AM 66.2 °F 48.2 °F 52% 29.53 in 10.0 mi ESE 4.6 mph - N/A   Clear
8:55 AM 69.8 °F 46.4 °F 43% 29.52 in 10.0 mi SSE 6.9 mph - N/A   Clear
9:15 AM 71.6 °F 44.6 °F 38% 29.52 in 10.0 mi South 15.0 mph 18.4 mph N/A   Clear
9:35 AM 71.6 °F 42.8 °F 35% 29.52 in 10.0 mi South 13.8 mph 18.4 mph N/A   Clear
9:55 AM 71.6 °F 42.8 °F 35% 29.50 in 10.0 mi South 15.0 mph - N/A   Clear
10:15 AM 71.6 °F 44.6 °F 38% 29.48 in 10.0 mi SSW 12.7 mph - N/A   Clear
10:35 AM 73.4 °F 42.8 °F 33% 29.49 in 10.0 mi SSW 15.0 mph - N/A   Clear
10:55 AM 71.6 °F 44.6 °F 38% 29.50 in 10.0 mi SSW 19.6 mph 24.2 mph N/A   Partly Cloudy
11:15 AM 73.4 °F 44.6 °F 36% 29.49 in 10.0 mi SSW 16.1 mph 20.7 mph N/A   Partly Cloudy
11:35 AM 75.2 °F 44.6 °F 34% 29.49 in 10.0 mi SW 19.6 mph 24.2 mph N/A   Clear
11:55 AM 75.2 °F 44.6 °F 34% 29.49 in 10.0 mi WSW 20.7 mph 26.5 mph N/A   Clear
12:15 PM 75.2 °F 46.4 °F 36% 29.49 in 10.0 mi West 24.2 mph 28.8 mph N/A   Clear
12:35 PM 75.2 °F 48.2 °F 38% 29.49 in 10.0 mi West 21.9 mph 32.2 mph N/A   Clear
12:55 PM 73.4 °F 48.2 °F 41% 29.50 in 10.0 mi West 20.7 mph 31.1 mph N/A   Clear
1:15 PM 75.2 °F 51.8 °F 44% 29.50 in 10.0 mi West 25.3 mph 32.2 mph N/A   Clear
1:35 PM 75.2 °F 51.8 °F 44% 29.50 in 10.0 mi West 26.5 mph 32.2 mph N/A   Clear
1:55 PM 73.4 °F 50.0 °F 44% 29.51 in 10.0 mi WNW 18.4 mph 32.2 mph N/A   Mostly Cloudy
2:15 PM 75.2 °F 51.8 °F 44% 29.51 in 10.0 mi WNW 24.2 mph 34.5 mph N/A   Mostly Cloudy
2:35 PM 73.4 °F 51.8 °F 47% 29.52 in 10.0 mi WNW 23.0 mph 28.8 mph N/A   Mostly Cloudy
3:35 PM 71.6 °F 46.4 °F 41% 29.50 in 10.0 mi WNW 21.9 mph 32.2 mph N/A   Clear
3:55 PM 71.6 °F 44.6 °F 38% 29.50 in 10.0 mi NW 21.9 mph 29.9 mph N/A   Clear
4:35 PM 71.6 °F 46.4 °F 41% 29.50 in 10.0 mi NW 16.1 mph - N/A   Clear
4:55 PM 71.6 °F 46.4 °F 41% 29.50 in 10.0 mi NNW 13.8 mph 17.3 mph N/A   Clear
5:15 PM 71.6 °F 46.4 °F 41% 29.51 in 10.0 mi NW 18.4 mph 21.9 mph N/A   Scattered Clouds
5:35 PM 71.6 °F 46.4 °F 41% 29.50 in 10.0 mi NNW 15.0 mph 19.6 mph N/A   Mostly Cloudy
5:55 PM 66.2 °F 51.8 °F 60% 29.52 in 10.0 mi NW 11.5 mph - N/A Thunderstorm Overcast
6:15 PM 66.2 °F 50.0 °F 56% 29.53 in 10.0 mi WNW 4.6 mph - N/A Thunderstorm Overcast
6:35 PM 60.8 °F 53.6 °F 77% 29.54 in 10.0 mi SE 13.8 mph - N/A Thunderstorm Overcast
7:15 PM 57.2 °F 53.6 °F 88% 29.52 in 10.0 mi ESE 3.5 mph - N/A   Mostly Cloudy
7:35 PM 57.2 °F 53.6 °F 88% 29.53 in 10.0 mi NE 5.8 mph - N/A   Mostly Cloudy
7:55 PM 59.0 °F 55.4 °F 88% 29.55 in 10.0 mi SSE 6.9 mph - N/A Thunderstorm Overcast
8:15 PM 59.0 °F 53.6 °F 82% 29.56 in 10.0 mi SSW 3.5 mph - N/A   Overcast
8:35 PM 59.0 °F 55.4 °F 88% 29.57 in 10.0 mi SW 3.5 mph - N/A   Overcast
8:55 PM 59.0 °F 48.2 °F 67% 29.58 in 10.0 mi WNW 11.5 mph - N/A   Overcast
9:15 PM 57.2 °F 46.4 °F 67% 29.57 in 10.0 mi West 20.7 mph 29.9 mph N/A   Overcast
9:55 PM 57.2 °F 44.6 °F 63% 29.57 in 10.0 mi West 19.6 mph 24.2 mph N/A   Overcast
10:15 PM 57.2 °F 46.4 °F 67% 29.59 in 10.0 mi West 17.3 mph 27.6 mph N/A   Overcast
10:35 PM 53.6 °F 48.2 °F 82% 29.57 in 10.0 mi WNW 5.8 mph - 0.01 in   Overcast
10:55 PM 53.6 °F 48.2 °F 82% 29.57 in 10.0 mi WNW 5.8 mph - 0.01 in   Overcast
11:15 PM 53.6 °F 46.4 °F 77% 29.57 in 10.0 mi West 10.4 mph - N/A   Overcast
11:35 PM 53.6 °F 46.4 °F 77% 29.56 in 10.0 mi West 11.5 mph - N/A   Overcast
11:55 PM 55.4 °F 46.4 °F 72% 29.57 in 10.0 mi WNW 10.4 mph - N/A   Overcast